Weather History for Rolla, MO

Change the Weather History Date:

Sunday, May 19, 2013

  Actual Average Record
Temperature  
Mean Temperature 77 °F 65 °F  
Max Temperature 87 °F 75 °F 92 °F (1996)
Min Temperature 67 °F 54 °F 37 °F (2002)
Degree Days  
Heating Degree Days 0 3  
Month to date heating degree days 130 89  
Since 1 July heating degree days 4920 4807  
Cooling Degree Days 12 3  
Month to date cooling degree days 45 37  
Year to date cooling degree days 58 63  
Growing Degree Days 26 (Base 50)    
Moisture  
Dew Point 67 °F    
Average Humidity 73    
Maximum Humidity 100    
Minimum Humidity 45    
Precipitation  
Precipitation 0.00 in 0.16 in 2.36 in (1950)
Month to date precipitation 1.80 3.09  
Year to date precipitation 15.97 14.86  
Sea Level Pressure  
Sea Level Pressure 29.80 in    
Wind  
Wind Speed 12 mph (SSE)    
Max Wind Speed 24 mph    
Max Gust Speed 33 mph    
Visibility 6 miles    
Events      
T = Trace of Precipitation, MM = Missing Value Source: NWS Daily Summary

Daily Weather History Graph

Daily Weather History Graph

Search for Another Location

Airport:

Trip Planner

Search our weather history database for the weather conditions in past years. The results will help you decide how hot, cold, wet, or windy it might be!

Date:

Astronomy

May. 19, 2013 Rise Set
Actual Time 5:53 AM CDT 8:14 PM CDT
Civil Twilight 5:23 AM CDT 8:44 PM CDT
Nautical Twilight 4:46 AM CDT 9:21 PM CDT
Astronomical Twilight 4:05 AM CDT 10:02 PM CDT
Moon 2:24 PM CDT (5/19) 2:11 AM CDT (5/19)
Length of Visible Light 15h 21m
Length of Day
14h 21m
Waxing Gibbous, 65% of the Moon is Illuminated
May 19
Waxing Gibbous
May 24
Full
May 31
Last Quarter
Jun 8
New
Jun 16
First Quarter

Hourly Weather History & Observations

Time (CDT) Temp. Heat Index Dew Point Humidity Pressure Visibility Wind Dir Wind Speed Gust Speed Precip Events Conditions
12:53 AM 70.0 °F - 66.9 °F 90% 29.84 in 7.0 mi SSE 6.9 mph - N/A   Clear
1:53 AM 69.1 °F - 66.9 °F 93% 29.82 in 5.0 mi SE 6.9 mph - N/A   Clear
2:53 AM 66.9 °F - 66.0 °F 97% 29.84 in 4.0 mi ESE 3.5 mph - N/A   Clear
3:11 AM 66.2 °F - 66.2 °F 100% 29.88 in 4.0 mi Calm Calm - N/A   Mostly Cloudy
3:50 AM 69.8 °F - 66.2 °F 88% 29.88 in 4.0 mi SSE 8.1 mph - N/A   Scattered Clouds
3:53 AM 69.1 °F - 66.9 °F 93% 29.84 in 4.0 mi SE 6.9 mph - N/A   Scattered Clouds
4:19 AM 69.8 °F - 66.2 °F 88% 29.86 in 4.0 mi SSE 10.4 mph - N/A   Mostly Cloudy
4:27 AM 69.8 °F - 68.0 °F 94% 29.86 in 4.0 mi SSE 10.4 mph - N/A   Partly Cloudy
4:53 AM 69.8 °F - 66.2 °F 88% 29.85 in 3.0 mi SSE 6.9 mph - N/A   Clear
5:07 AM 68.0 °F - 66.2 °F 94% 29.84 in 3.0 mi SSE 5.8 mph - N/A   Partly Cloudy
5:28 AM 68.0 °F - 66.2 °F 94% 29.83 in 2.5 mi East 5.8 mph - N/A   Partly Cloudy
5:53 AM 68.0 °F - 66.9 °F 96% 29.81 in 1.5 mi ESE 8.1 mph - N/A   Scattered Clouds
6:06 AM 68.0 °F - 66.2 °F 94% 29.84 in 1.5 mi SE 8.1 mph - N/A   Mostly Cloudy
6:53 AM 69.8 °F - 68.0 °F 94% 29.84 in 1.2 mi SE 11.5 mph - N/A   Overcast
7:53 AM 71.1 °F - 69.1 °F 93% 29.85 in 2.0 mi SSE 9.2 mph - N/A   Overcast
8:20 AM 73.4 °F - 69.8 °F 88% 29.90 in 3.0 mi South 11.5 mph - N/A   Overcast
8:38 AM 73.4 °F - 69.8 °F 88% 29.91 in 3.0 mi SSW 8.1 mph - N/A   Scattered Clouds
8:53 AM 73.9 °F - 71.1 °F 91% 29.88 in 4.0 mi SSW 6.9 mph - N/A   Clear
9:53 AM 77.0 °F - 71.1 °F 82% 29.86 in 5.0 mi SSW 9.2 mph - N/A   Haze
10:53 AM 79.0 °F - 72.0 °F 79% 29.82 in 6.0 mi SE 10.4 mph - N/A   Haze
11:53 AM 82.0 °F 86.7 °F 72.0 °F 71% 29.81 in 8.0 mi SSE 9.2 mph - N/A   Partly Cloudy
12:53 PM 84.0 °F 89.6 °F 72.0 °F 67% 29.78 in 9.0 mi SE 11.5 mph - N/A   Clear
1:53 PM 84.2 °F 88.4 °F 69.8 °F 62% 29.78 in 10.0 mi SSE 13.8 mph - N/A   Clear
2:53 PM 87.8 °F 90.4 °F 66.2 °F 49% 29.75 in 10.0 mi SSE 15.0 mph 28.8 mph N/A   Clear
3:53 PM 86.0 °F 88.8 °F 66.9 °F 53% 29.70 in 10.0 mi South 16.1 mph 26.5 mph N/A   Clear
4:53 PM 86.0 °F 86.3 °F 62.1 °F 44% 29.69 in 10.0 mi South 17.3 mph 29.9 mph N/A   Clear
5:53 PM 82.9 °F 84.0 °F 63.0 °F 51% 29.66 in 10.0 mi South 16.1 mph 24.2 mph N/A   Clear
6:53 PM 82.0 °F 83.8 °F 64.9 °F 56% 29.65 in 10.0 mi SSE 17.3 mph 24.2 mph N/A   Clear
7:53 PM 79.0 °F - 64.9 °F 62% 29.68 in 10.0 mi SSE 18.4 mph 25.3 mph N/A   Clear
8:53 PM 77.0 °F - 66.0 °F 69% 29.71 in 10.0 mi South 15.0 mph - N/A   Clear
9:53 PM 75.9 °F - 64.9 °F 69% 29.76 in 10.0 mi South 13.8 mph 23.0 mph N/A   Clear
10:53 PM 75.2 °F - 66.2 °F 73% 29.80 in 10.0 mi South 9.2 mph 19.6 mph N/A   Clear
11:53 PM 75.0 °F - 66.9 °F 76% 29.71 in 10.0 mi SSE 12.7 mph - N/A   Clear